GW4210 Weather Reports


time (UTC)temp
C
wind
direction
speed
KPH
gust
KPH
rain 1hr
cm
rain 24hr
cm
rain mn
cm
humidity
%
barometer
mb
20260508125523 28 352 1.6 4.8 0.00 0.00 0.00 71 1011.8
20260508125023 28 360 3.2 6.4 0.00 0.00 0.00 70 1011.7
20260508124538 28 17 3.2 6.4 0.00 0.00 0.00 69 1011.5
20260508124023 28 17 1.6 4.8 0.00 0.00 0.00 68 1011.4
20260508123524 28 101 3.2 6.4 0.00 0.00 0.00 68 1011.2
20260508123046 28 98 4.8 6.4 0.00 0.00 0.00 68 1011.1
20260508122523 28 105 4.8 9.7 0.00 0.00 0.00 68 1011.0
20260508122020 29 117 4.8 12.9 0.00 0.00 0.00 68 1010.9
20260508121545 29 105 6.4 12.9 0.00 0.00 0.00 67 1010.8
20260508121023 29 105 6.4 12.9 0.00 0.00 0.00 67 1010.7
20260508120522 29 114 8.0 12.9 0.00 0.00 0.00 67 1010.6
20260508120039 29 140 6.4 16.1 0.00 0.00 0.00 67 1010.5
20260508115521 29 113 9.7 16.1 0.00 0.00 0.00 66 1010.4
20260508115019 30 119 8.0 16.1 0.00 0.00 0.00 66 1010.4
20260508114538 30 107 9.7 17.7 0.00 0.00 0.00 65 1010.2
20260508114022 30 124 12.9 17.7 0.00 0.00 0.00 65 1010.1
20260508113523 30 121 11.3 17.7 0.00 0.00 0.00 64 1009.9
20260508113040 30 110 14.5 17.7 0.00 0.00 0.00 64 1009.9
20260508112523 30 126 11.3 17.7 0.00 0.00 0.00 64 1009.9
20260508112023 30 112 12.9 19.3 0.00 0.00 0.00 62 1009.8
20260508111538 30 124 12.9 20.9 0.00 0.00 0.00 62 1009.7
20260508111023 30 103 14.5 22.5 0.00 0.00 0.00 62 1009.6
20260508110523 30 136 14.5 22.5 0.00 0.00 0.00 61 1009.8
20260508110039 30 121 17.7 22.5 0.00 0.00 0.00 61 1009.7
20260508105523 31 119 16.1 22.5 0.00 0.00 0.00 61 1009.6
20260508105020 31 126 11.3 19.3 0.00 0.00 0.00 61 1009.6
20260508104538 31 128 11.3 20.9 0.00 0.00 0.00 62 1009.5
20260508104020 31 124 16.1 20.9 0.00 0.00 0.00 61 1009.4
20260508103520 31 113 14.5 20.9 0.00 0.00 0.00 61 1009.3
20260508103041 31 132 11.3 17.7 0.00 0.00 0.00 62 1009.2
20260508102520 31 126 12.9 17.7 0.00 0.00 0.00 62 1009.2
20260508102021 31 127 12.9 17.7 0.00 0.00 0.00 62 1009.2
20260508101540 32 121 12.9 17.7 0.00 0.00 0.00 61 1009.2
20260508101021 32 122 11.3 17.7 0.00 0.00 0.00 61 1009.1
20260508100524 32 112 11.3 22.5 0.00 0.00 0.00 58 1009.0
20260508100036 32 113 12.9 22.5 0.00 0.00 0.00 58 1008.9
20260508095519 32 125 12.9 22.5 0.00 0.00 0.00 58 1008.8
20260508095020 32 109 12.9 20.9 0.00 0.00 0.00 58 1008.7
20260508094541 32 136 12.9 20.9 0.00 0.00 0.00 58 1008.6
20260508094022 32 121 14.5 20.9 0.00 0.00 0.00 59 1008.5
20260508091545 33 107 17.7 27.4 0.00 0.00 0.00 56 1008.3
20260508091021 33 115 17.7 27.4 0.00 0.00 0.00 55 1008.2
20260508090522 33 111 16.1 27.4 0.00 0.00 0.00 57 1008.2
20260508090058 33 94 16.1 27.4 0.00 0.00 0.00 56 1008.0
20260508085522 33 121 14.5 22.5 0.00 0.00 0.00 57 1008.0
20260508085023 33 126 16.1 25.7 0.00 0.00 0.00 56 1008.0
20260508084542 33 153 19.3 25.7 0.00 0.00 0.00 55 1007.9
20260508084022 33 119 19.3 25.7 0.00 0.00 0.00 56 1007.9
20260508083524 33 112 16.1 25.7 0.00 0.00 0.00 58 1007.8
20260508083035 33 138 14.5 24.1 0.00 0.00 0.00 57 1007.8
20260508082522 34 148 14.5 24.1 0.00 0.00 0.00 55 1007.7
20260508082022 34 158 16.1 24.1 0.00 0.00 0.00 56 1007.7
20260508081543 34 126 17.7 24.1 0.00 0.00 0.00 54 1007.6
20260508081022 34 122 17.7 24.1 0.00 0.00 0.00 56 1007.7
20260508080527 34 132 16.1 24.1 0.00 0.00 0.00 57 1007.6
20260508080040 34 133 14.5 25.7 0.00 0.00 0.00 58 1007.6
20260508075523 34 135 19.3 25.7 0.00 0.00 0.00 57 1007.5
20260508075022 34 117 19.3 25.7 0.00 0.00 0.00 57 1007.5
20260508074540 35 122 17.7 27.4 0.00 0.00 0.00 55 1007.5
20260508074022 35 119 16.1 27.4 0.00 0.00 0.00 55 1007.7
20260508073522 35 153 19.3 27.4 0.00 0.00 0.00 56 1007.7
20260508073054 35 123 16.1 24.1 0.00 0.00 0.00 55 1007.6
20260508072524 35 103 14.5 25.7 0.00 0.00 0.00 55 1007.7
20260508072020 35 109 17.7 25.7 0.00 0.00 0.00 55 1007.7
20260508071541 35 140 14.5 22.5 0.00 0.00 0.00 55 1007.9
20260508071022 35 121 12.9 19.3 0.00 0.00 0.00 55 1007.8
20260508070523 35 135 9.7 17.7 0.00 0.00 0.00 56 1007.7
20260508070047 35 124 8.0 24.1 0.00 0.00 0.00 58 1007.8
20260508065524 35 86 14.5 24.1 0.00 0.00 0.00 57 1007.9
20260508065028 35 114 12.9 22.5 0.00 0.00 0.00 55 1007.9
20260508064538 35 119 14.5 24.1 0.00 0.00 0.00 57 1008.0
20260508064021 34 113 16.1 24.1 0.00 0.00 0.00 55 1008.0
20260508063525 34 136 19.3 27.4 0.00 0.00 0.00 54 1008.2
20260508063038 35 149 17.7 27.4 0.00 0.00 0.00 55 1008.3
20260508062524 35 127 19.3 29.0 0.00 0.00 0.00 54 1008.3
20260508062020 35 132 16.1 29.0 0.00 0.00 0.00 55 1008.3
20260508061541 35 117 20.9 30.6 0.00 0.00 0.00 54 1008.6
20260508061023 35 126 17.7 30.6 0.00 0.00 0.00 58 1008.7
20260508060523 35 112 20.9 30.6 0.00 0.00 0.00 57 1008.6
20260508060100 34 127 14.5 22.5 0.00 0.00 0.00 61 1008.5
20260508055523 34 161 11.3 22.5 0.00 0.00 0.00 59 1008.7
20260508055023 35 151 16.1 22.5 0.00 0.00 0.00 59 1008.7
20260508054541 35 140 12.9 24.1 0.00 0.00 0.00 57 1008.7
20260508054024 34 121 14.5 27.4 0.00 0.00 0.00 58 1009.0
20260508053523 34 136 17.7 27.4 0.00 0.00 0.00 58 1009.1
20260508053038 34 123 16.1 25.7 0.00 0.00 0.00 63 1009.0
20260508052526 34 144 11.3 22.5 0.00 0.00 0.00 64 1009.0
20260508052026 34 154 11.3 27.4 0.00 0.00 0.00 59 1009.1
20260508051555 34 127 16.1 27.4 0.00 0.00 0.00 59 1009.2
20260508051030 33 125 14.5 20.9 0.00 0.00 0.00 60 1009.3
20260508050524 33 142 11.3 25.7 0.00 0.00 0.00 64 1009.4
20260508050039 33 158 12.9 25.7 0.00 0.00 0.00 62 1009.5
20260508045523 34 161 14.5 25.7 0.00 0.00 0.00 61 1009.6
20260508045023 34 170 9.7 20.9 0.00 0.00 0.00 65 1009.6
20260508044538 34 97 12.9 24.1 0.00 0.00 0.00 62 1009.8
20260508044020 33 123 14.5 24.1 0.00 0.00 0.00 64 1009.8
20260508043520 33 135 11.3 20.9 0.00 0.00 0.00 61 1009.8
20260508043039 33 173 12.9 20.9 0.00 0.00 0.00 65 1009.8
20260508042524 33 140 12.9 20.9 0.00 0.00 0.00 64 1009.9
20260508042022 33 113 12.9 20.9 0.00 0.00 0.00 63 1010.1
20260508041538 33 139 8.0 17.7 0.00 0.00 0.00 59 1010.1
20260508041024 33 120 12.9 17.7 0.00 0.00 0.00 62 1010.1
20260508040523 33 126 9.7 16.1 0.00 0.00 0.00 65 1010.2
20260508040047 33 155 9.7 17.7 0.00 0.00 0.00 61 1010.1
20260508035523 33 162 8.0 17.7 0.00 0.00 0.00 66 1010.2
20260508035023 33 141 12.9 17.7 0.00 0.00 0.00 64 1010.2
20260508034546 33 169 4.8 16.1 0.00 0.00 0.00 62 1010.3
20260508034023 33 142 4.8 19.3 0.00 0.00 0.00 62 1010.3
20260508033523 33 121 11.3 19.3 0.00 0.00 0.00 61 1010.3
20260508033046 33 134 11.3 19.3 0.00 0.00 0.00 64 1010.4
20260508032528 33 150 6.4 14.5 0.00 0.00 0.00 66 1010.5
20260508032020 33 143 9.7 14.5 0.00 0.00 0.00 64 1010.6
20260508031548 33 215 1.6 12.9 0.00 0.00 0.00 60 1010.7
20260508031023 33 136 4.8 12.9 0.00 0.00 0.00 59 1010.7
20260508030523 33 62 4.8 12.9 0.00 0.00 0.00 65 1010.8
20260508030039 32 103 6.4 12.9 0.00 0.00 0.00 66 1010.9
20260508025523 33 168 8.0 12.9 0.00 0.00 0.00 65 1011.0
20260508025026 33 115 8.0 16.1 0.00 0.00 0.00 64 1011.1
20260508024600 33 120 3.2 16.1 0.00 0.00 0.00 61 1011.1
20260508024025 33 155 6.4 16.1 0.00 0.00 0.00 65 1011.2
20260508023524 33 78 1.6 17.7 0.00 0.00 0.00 64 1011.2
20260508023038 33 98 3.2 17.7 0.00 0.00 0.00 63 1011.2
20260508022520 32 65 9.7 14.5 0.00 0.00 0.00 68 1011.3
20260508022020 32 126 6.4 12.9 0.00 0.00 0.00 61 1011.3
20260508021547 33 28 3.2 16.1 0.00 0.00 0.00 63 1011.5
20260508021023 32 49 4.8 16.1 0.00 0.00 0.00 62 1011.6
20260508020520 32 49 4.8 11.3 0.00 0.00 0.00 62 1011.6
20260508020048 32 101 3.2 9.7 0.00 0.00 0.00 62 1011.7
20260508015523 33 117 1.6 16.1 0.00 0.00 0.00 63 1011.8
20260508015020 32 90 4.8 16.1 0.00 0.00 0.00 65 1011.7
20260508014545 32 126 4.8 14.5 0.00 0.00 0.00 65 1011.7
20260508014024 32 151 4.8 14.5 0.00 0.00 0.00 65 1011.6
20260508013526 31 100 8.0 14.5 0.00 0.00 0.00 64 1011.7
20260508013038 31 173 9.7 27.4 0.00 0.00 0.00 67 1011.6
20260508012523 31 119 6.4 27.4 0.00 0.00 0.00 68 1011.7
20260508012022 31 180 1.6 9.7 0.00 0.00 0.00 68 1011.7
20260508011538 31 150 4.8 14.5 0.00 0.00 0.00 67 1011.8
20260508011020 31 132 3.2 16.1 0.00 0.00 0.00 69 1011.8
20260508010520 31 123 12.9 16.1 0.00 0.00 0.00 65 1011.8
20260508010051 31 55 3.2 14.5 0.00 0.00 0.00 66 1011.7
20260508005523 31 102 4.8 14.5 0.00 0.00 0.00 67 1011.8
20260508005023 31 111 4.8 12.9 0.00 0.00 0.00 67 1011.8
20260508004550 31 98 4.8 9.7 0.00 0.00 0.00 68 1011.9
20260508004023 30 141 1.6 6.4 0.00 0.00 0.00 69 1011.8
20260508003522 30 92 3.2 6.4 0.00 0.00 0.00 72 1011.8
20260508003035 30 183 0.0 4.8 0.00 0.00 0.00 67 1011.9
20260508002523 30 66 1.6 9.7 0.00 0.00 0.00 69 1011.9
20260508002022 30 80 1.6 9.7 0.00 0.00 0.00 67 1011.8
20260508001543 30 19 1.6 11.3 0.00 0.00 0.00 69 1011.9
20260508001020 30 159 1.6 11.3 0.00 0.00 0.00 71 1011.8
20260508000522 30 108 4.8 9.7 0.00 0.00 0.00 73 1011.9
20260508000034 30 156 3.2 6.4 0.00 0.00 0.00 71 1011.7
20260507235524 30 121 1.6 6.4 0.00 0.00 0.00 72 1011.6
20260507235023 30 115 3.2 6.4 0.00 0.00 0.00 71 1011.5
20260507234538 30 84 1.6 9.7 0.00 0.00 0.00 73 1011.6
20260507234021 29 56 3.2 9.7 0.00 0.00 0.00 76 1011.6
20260507233523 29 127 3.2 9.7 0.00 0.00 0.00 75 1011.6
20260507233039 28 121 1.6 4.8 0.00 0.00 0.00 76 1011.6
20260507232524 28 103 3.2 9.7 0.00 0.00 0.00 78 1011.5
20260507232024 28 82 1.6 9.7 0.00 0.00 0.00 78 1011.5
20260507231542 28 91 4.8 6.4 0.00 0.00 0.00 79 1011.5
20260507231020 27 79 4.8 6.4 0.00 0.00 0.00 79 1011.5
20260507230524 27 103 3.2 6.4 0.00 0.00 0.00 80 1011.5
20260507230048 27 80 0.0 3.2 0.00 0.00 0.00 83 1011.5
20260507225523 26 0 0.0 3.2 0.00 0.00 0.00 83 1011.4
20260507225020 26 0 0.0 3.2 0.00 0.00 0.00 86 1011.5
20260507224536 26 0 0.0 3.2 0.00 0.00 0.00 88 1011.5
20260507224020 25 218 0.0 3.2 0.00 0.00 0.00 89 1011.6
20260507223520 25 247 0.0 3.2 0.00 0.00 0.00 89 1011.6
20260507223035 25 0 0.0 0.0 0.00 0.00 0.00 89 1011.5
20260507222523 25 0 0.0 0.0 0.00 0.00 0.00 89 1011.4
20260507222023 25 0 0.0 1.6 0.00 0.00 0.00 90 1011.3
20260507221542 24 0 0.0 3.2 0.00 0.00 0.00 90 1011.3
20260507221027 24 0 0.0 3.2 0.00 0.00 0.00 90 1011.1
20260507220527 24 0 0.0 3.2 0.00 0.00 0.00 90 1011.1
20260507220042 24 0 0.0 3.2 0.00 0.00 0.00 91 1011.0
20260507215521 24 248 0.0 3.2 0.00 0.00 0.00 91 1010.8
20260507215023 24 248 0.0 3.2 0.00 0.00 0.00 91 1010.8
20260507214538 24 248 0.0 3.2 0.00 0.00 0.00 91 1010.7
20260507214024 24 0 0.0 1.6 0.00 0.00 0.00 91 1010.8
20260507213523 24 235 0.0 1.6 0.00 0.00 0.00 91 1010.8
20260507213037 24 0 0.0 1.6 0.00 0.00 0.00 91 1010.7
20260507212523 24 0 0.0 1.6 0.00 0.00 0.00 91 1010.7
20260507212021 24 0 0.0 1.6 0.00 0.00 0.00 91 1010.7
20260507211543 24 0 0.0 1.6 0.00 0.00 0.00 91 1010.7
20260507211025 24 0 0.0 1.6 0.00 0.00 0.00 91 1010.5
20260507210524 24 235 1.6 4.8 0.00 0.00 0.00 91 1010.4
20260507210046 24 228 1.6 4.8 0.00 0.00 0.00 91 1010.4
20260507205523 24 217 1.6 4.8 0.00 0.00 0.00 91 1010.4
20260507205019 24 0 0.0 3.2 0.00 0.00 0.00 91 1010.3
20260507204539 24 16 1.6 3.2 0.00 0.00 0.00 91 1010.2
20260507204022 24 16 0.0 3.2 0.00 0.00 0.00 91 1010.2
20260507203523 24 0 0.0 3.2 0.00 0.00 0.00 91 1010.2
20260507203106 24 16 0.0 1.6 0.00 0.00 0.00 91 1010.1
20260507202527 24 16 1.6 3.2 0.00 0.00 0.00 90 1010.1
20260507202021 24 16 0.0 3.2 0.00 0.00 0.00 90 1010.1
20260507201538 24 16 0.0 1.6 0.00 0.00 0.00 90 1010.1
20260507201020 24 0 0.0 1.6 0.00 0.00 0.00 90 1010.3
20260507200523 24 0 0.0 3.2 0.00 0.00 0.00 90 1010.3
20260507200043 25 0 0.0 3.2 0.00 0.00 0.00 90 1010.2
20260507195526 25 16 0.0 3.2 0.00 0.00 0.00 90 1010.2
20260507195023 25 16 0.0 3.2 0.00 0.00 0.00 90 1010.2
20260507194539 24 0 0.0 0.0 0.00 0.00 0.00 90 1010.1
20260507194024 24 0 0.0 0.0 0.00 0.00 0.00 90 1010.1
20260507193522 24 0 0.0 0.0 0.00 0.00 0.00 90 1009.9
20260507193041 24 0 0.0 3.2 0.00 0.00 0.00 90 1009.9
20260507192519 24 0 0.0 3.2 0.00 0.00 0.00 90 1009.9
20260507192020 25 0 0.0 3.2 0.00 0.00 0.00 90 1010.0
20260507191542 25 0 0.0 3.2 0.00 0.00 0.00 91 1010.0
20260507191024 25 0 0.0 3.2 0.00 0.00 0.00 90 1010.0
20260507190521 25 16 0.0 1.6 0.00 0.00 0.00 90 1010.1
20260507190045 25 16 1.6 3.2 0.00 0.00 0.00 89 1010.1
20260507185520 25 16 0.0 3.2 0.00 0.00 0.00 89 1010.0
20260507185023 25 0 0.0 0.0 0.00 0.00 0.00 89 1010.0
20260507184535 25 0 0.0 0.0 0.00 0.00 0.00 88 1009.9
20260507184020 25 0 0.0 0.0 0.00 0.00 0.00 87 1009.9
20260507183522 25 0 0.0 0.0 0.00 0.00 0.00 87 1009.8
20260507183039 25 0 0.0 0.0 0.00 0.00 0.00 86 1009.8
20260507182523 25 0 0.0 0.0 0.00 0.00 0.00 86 1009.8
20260507182019 25 0 0.0 0.0 0.00 0.00 0.00 86 1009.9
20260507181539 25 0 0.0 0.0 0.00 0.00 0.00 86 1009.9
20260507181029 25 0 0.0 1.6 0.00 0.00 0.00 86 1009.9
20260507180524 25 0 0.0 3.2 0.00 0.00 0.00 84 1009.9
20260507180041 25 0 0.0 3.2 0.00 0.00 0.00 83 1009.8
20260507175520 25 0 0.0 3.2 0.00 0.00 0.00 82 1009.9
20260507175020 25 0 0.0 0.0 0.00 0.00 0.00 81 1009.9
20260507174542 25 0 0.0 0.0 0.00 0.00 0.00 81 1009.9
20260507174027 26 0 0.0 0.0 0.00 0.00 0.00 81 1009.9
20260507173520 26 0 0.0 0.0 0.00 0.00 0.00 81 1009.9
20260507173114 26 0 0.0 0.0 0.00 0.00 0.00 80 1009.9
20260507172523 26 0 0.0 0.0 0.00 0.00 0.00 80 1009.9
20260507172021 26 0 0.0 0.0 0.00 0.00 0.00 81 1010.1
20260507171542 26 0 0.0 0.0 0.00 0.00 0.00 83 1010.1
20260507171021 26 0 0.0 0.0 0.00 0.00 0.00 79 1010.2
20260507170523 26 0 0.0 0.0 0.00 0.00 0.00 79 1010.2
20260507170040 26 0 0.0 0.0 0.00 0.00 0.00 78 1010.2
20260507165521 26 0 0.0 0.0 0.00 0.00 0.00 78 1010.1
20260507165023 26 0 0.0 0.0 0.00 0.00 0.00 79 1010.2
20260507164538 26 0 0.0 0.0 0.00 0.00 0.00 80 1010.2
20260507164024 26 0 0.0 0.0 0.00 0.00 0.00 81 1010.2
20260507163527 26 0 0.0 0.0 0.00 0.00 0.00 82 1010.3
20260507163039 26 0 0.0 0.0 0.00 0.00 0.00 78 1010.3
20260507162526 26 0 0.0 0.0 0.00 0.00 0.00 78 1010.3
20260507162023 26 0 0.0 0.0 0.00 0.00 0.00 77 1010.3
20260507161543 26 0 0.0 0.0 0.00 0.00 0.00 78 1010.3
20260507161023 26 0 0.0 0.0 0.00 0.00 0.00 79 1010.3
20260507160522 26 0 0.0 0.0 0.00 0.00 0.00 79 1010.3
20260507160044 26 0 0.0 0.0 0.00 0.00 0.00 78 1010.4
20260507155522 26 0 0.0 0.0 0.00 0.00 0.00 79 1010.4
20260507155023 26 0 0.0 0.0 0.00 0.00 0.00 80 1010.6
20260507154540 26 0 0.0 0.0 0.00 0.00 0.00 80 1010.8
20260507154022 26 0 0.0 0.0 0.00 0.00 0.00 80 1010.8
20260507153523 26 0 0.0 0.0 0.00 0.00 0.00 81 1010.9
20260507153039 26 0 0.0 0.0 0.00 0.00 0.00 82 1010.9
20260507152525 26 0 0.0 0.0 0.00 0.00 0.00 81 1010.9
20260507152031 26 0 0.0 3.2 0.00 0.00 0.00 81 1011.0
20260507151536 26 0 0.0 3.2 0.00 0.00 0.00 81 1011.1
20260507151023 26 0 0.0 3.2 0.00 0.00 0.00 82 1011.1
20260507150523 26 0 0.0 0.0 0.00 0.00 0.00 83 1011.1
20260507150043 26 0 0.0 0.0 0.00 0.00 0.00 81 1011.1
20260507145524 26 0 0.0 0.0 0.00 0.00 0.00 81 1011.2
20260507145027 26 0 0.0 0.0 0.00 0.00 0.00 81 1011.3
20260507144539 26 0 0.0 0.0 0.00 0.00 0.00 82 1011.3
20260507144023 26 0 0.0 0.0 0.00 0.00 0.00 84 1011.2
20260507143522 26 0 0.0 0.0 0.00 0.00 0.00 82 1011.2
20260507143045 26 0 0.0 0.0 0.00 0.00 0.00 82 1011.1
20260507142524 26 0 0.0 0.0 0.00 0.00 0.00 84 1011.1
20260507142027 26 0 0.0 0.0 0.00 0.00 0.00 84 1011.2
20260507141547 26 0 0.0 0.0 0.00 0.00 0.00 84 1011.1
20260507141022 26 0 0.0 0.0 0.00 0.00 0.00 85 1011.0
20260507140525 26 0 0.0 0.0 0.00 0.00 0.00 84 1011.1
20260507140041 26 0 0.0 0.0 0.00 0.00 0.00 82 1011.1
20260507135522 26 0 0.0 0.0 0.00 0.00 0.00 82 1011.1
20260507135023 27 0 0.0 0.0 0.00 0.00 0.00 81 1011.1
20260507134539 27 0 0.0 0.0 0.00 0.00 0.00 79 1011.1
20260507134019 27 0 0.0 0.0 0.00 0.00 0.00 79 1010.9
20260507133521 27 0 0.0 0.0 0.00 0.00 0.00 77 1010.9
20260507133106 27 0 0.0 0.0 0.00 0.00 0.00 77 1010.9
20260507132529 27 0 0.0 3.2 0.00 0.00 0.00 78 1010.7
20260507132022 27 0 0.0 3.2 0.00 0.00 0.00 79 1010.6
20260507131544 27 0 0.0 3.2 0.00 0.00 0.00 78 1010.6
20260507131022 27 0 0.0 3.2 0.00 0.00 0.00 77 1010.5
20260507130521 27 350 0.0 3.2 0.00 0.00 0.00 77 1010.4
20260507130048 27 340 3.2 3.2 0.00 0.00 0.00 78 1010.4